Time,TemperatureF,DewpointF,PressureIn,WindDirection,WindDirectionDegrees,WindSpeedMPH,WindSpeedGustMPH,Humidity,HourlyPrecipIn,Conditions,Clouds,dailyrainin,SoftwareType,DateUTC
2013-05-10 00:02:00,53.4,51.1,29.91,ESE,114,3.0,9.0,92,0.00,,,0.58,Wunderground v.1.15,2013-05-10 05:02:00,
2013-05-10 00:08:00,53.3,51.0,29.92,SE,124,3.0,9.0,92,0.00,,,0.58,Wunderground v.1.15,2013-05-10 05:08:00,
2013-05-10 00:14:00,53.3,51.0,29.92,ESE,119,2.0,9.0,92,0.00,,,0.58,Wunderground v.1.15,2013-05-10 05:14:00,
2013-05-10 00:19:00,53.2,50.9,29.92,East,98,3.0,9.0,92,0.00,,,0.58,Wunderground v.1.15,2013-05-10 05:19:00,
2013-05-10 00:25:00,53.1,50.8,29.92,SE,142,3.0,9.0,92,0.00,,,0.58,Wunderground v.1.15,2013-05-10 05:25:00,
2013-05-10 00:31:00,53.1,50.8,29.91,SSE,162,2.0,9.0,92,0.00,,,0.58,Wunderground v.1.15,2013-05-10 05:31:00,
2013-05-10 00:37:00,53.0,50.7,29.91,SSE,160,2.0,9.0,92,0.00,,,0.58,Wunderground v.1.15,2013-05-10 05:37:00,
2013-05-10 00:42:00,52.8,50.5,29.91,ESE,122,3.0,9.0,92,0.00,,,0.58,Wunderground v.1.15,2013-05-10 05:42:00,
2013-05-10 00:48:00,52.8,50.5,29.91,SSE,148,4.0,9.0,92,0.00,,,0.58,Wunderground v.1.15,2013-05-10 05:48:00,
2013-05-10 00:54:00,52.8,50.8,29.91,SE,135,3.0,9.0,93,0.00,,,0.58,Wunderground v.1.15,2013-05-10 05:54:00,
2013-05-10 01:00:00,52.7,50.7,29.91,East,84,3.0,9.0,93,0.00,,,0.58,Wunderground v.1.15,2013-05-10 06:00:00,
2013-05-10 01:06:00,52.5,50.5,29.91,SE,136,4.0,9.0,93,0.00,,,0.58,Wunderground v.1.15,2013-05-10 06:06:00,
2013-05-10 01:12:00,52.3,50.3,29.91,SSE,153,4.0,9.0,93,0.00,,,0.58,Wunderground v.1.15,2013-05-10 06:12:00,
2013-05-10 01:18:00,52.1,50.1,29.91,SE,128,3.0,9.0,93,0.00,,,0.58,Wunderground v.1.15,2013-05-10 06:18:00,
2013-05-10 01:23:00,52.0,50.3,29.91,SE,134,2.0,9.0,94,0.00,,,0.58,Wunderground v.1.15,2013-05-10 06:23:00,
2013-05-10 01:29:00,52.0,50.3,29.91,SE,132,3.0,9.0,94,0.00,,,0.00,Wunderground v.1.15,2013-05-10 06:29:00,
2013-05-10 01:35:00,51.8,50.1,29.91,SE,137,3.0,9.0,94,0.00,,,0.00,Wunderground v.1.15,2013-05-10 06:35:00,
2013-05-10 01:41:00,51.7,50.0,29.91,SSE,148,4.0,9.0,94,0.00,,,0.00,Wunderground v.1.15,2013-05-10 06:41:00,
2013-05-10 01:46:00,51.6,49.9,29.91,SE,134,4.0,10.0,94,0.00,,,0.00,Wunderground v.1.15,2013-05-10 06:46:00,
2013-05-10 01:52:00,51.5,49.8,29.91,SE,143,5.0,9.0,94,0.00,,,0.00,Wunderground v.1.15,2013-05-10 06:52:00,
2013-05-10 01:58:00,51.5,49.8,29.90,ESE,118,4.0,9.0,94,0.00,,,0.00,Wunderground v.1.15,2013-05-10 06:58:00,
2013-05-10 02:04:00,51.4,49.7,29.90,SE,132,4.0,9.0,94,0.00,,,0.00,Wunderground v.1.15,2013-05-10 07:04:00,
2013-05-10 02:10:00,51.2,49.5,29.91,ESE,114,4.0,9.0,94,0.00,,,0.00,Wunderground v.1.15,2013-05-10 07:10:00,
2013-05-10 02:16:00,51.0,49.3,29.91,SSE,150,4.0,9.0,94,0.00,,,0.00,Wunderground v.1.15,2013-05-10 07:16:00,
2013-05-10 02:22:00,50.8,49.1,29.91,SE,136,5.0,9.0,94,0.00,,,0.00,Wunderground v.1.15,2013-05-10 07:22:00,
2013-05-10 02:27:00,50.8,49.1,29.91,ESE,119,4.0,9.0,94,0.00,,,0.00,Wunderground v.1.15,2013-05-10 07:27:00,
2013-05-10 02:33:00,50.7,49.0,29.92,SE,124,3.0,9.0,94,0.00,,,0.00,Wunderground v.1.15,2013-05-10 07:33:00,
2013-05-10 02:39:00,50.6,48.9,29.92,SE,132,2.0,9.0,94,0.00,,,0.00,Wunderground v.1.15,2013-05-10 07:39:00,
2013-05-10 02:45:00,50.6,48.9,29.92,South,189,3.0,9.0,94,0.00,,,0.00,Wunderground v.1.15,2013-05-10 07:45:00,
2013-05-10 02:50:00,50.5,48.8,29.92,ESE,104,3.0,9.0,94,0.00,,,0.00,Wunderground v.1.15,2013-05-10 07:50:00,
2013-05-10 02:56:00,50.5,48.8,29.93,SSE,166,4.0,9.0,94,0.00,,,0.00,Wunderground v.1.15,2013-05-10 07:56:00,
2013-05-10 03:02:00,50.4,48.7,29.93,ESE,122,3.0,9.0,94,0.00,,,0.00,Wunderground v.1.15,2013-05-10 08:02:00,
2013-05-10 03:08:00,50.3,48.6,29.93,SE,124,3.0,9.0,94,0.00,,,0.00,Wunderground v.1.15,2013-05-10 08:08:00,
2013-05-10 03:14:00,50.3,48.6,29.93,SE,143,4.0,9.0,94,0.00,,,0.00,Wunderground v.1.15,2013-05-10 08:14:00,
2013-05-10 03:20:00,50.3,48.6,29.93,SE,124,4.0,4.0,94,0.00,,,0.00,Wunderground v.1.15,2013-05-10 08:20:00,
2013-05-10 03:26:00,50.2,48.5,29.93,ESE,121,3.0,9.0,94,0.00,,,0.00,Wunderground v.1.15,2013-05-10 08:26:00,
2013-05-10 03:31:00,50.2,48.5,29.93,SE,131,3.0,9.0,94,0.00,,,0.00,Wunderground v.1.15,2013-05-10 08:31:00,
2013-05-10 03:37:00,50.1,48.4,29.94,SSE,163,3.0,9.0,94,0.00,,,0.00,Wunderground v.1.15,2013-05-10 08:37:00,
2013-05-10 03:43:00,50.1,48.4,29.94,SE,136,3.0,9.0,94,0.00,,,0.00,Wunderground v.1.15,2013-05-10 08:43:00,
2013-05-10 03:49:00,50.1,48.4,29.94,SSE,147,3.0,9.0,94,0.00,,,0.00,Wunderground v.1.15,2013-05-10 08:49:00,
2013-05-10 03:54:00,50.0,48.3,29.94,East,101,3.0,9.0,94,0.00,,,0.00,Wunderground v.1.15,2013-05-10 08:54:00,
2013-05-10 04:00:00,50.0,48.3,29.94,ESE,114,3.0,3.0,94,0.00,,,0.00,Wunderground v.1.15,2013-05-10 09:00:00,
2013-05-10 04:06:00,49.9,48.2,29.95,East,96,3.0,9.0,94,0.00,,,0.00,Wunderground v.1.15,2013-05-10 09:06:00,
2013-05-10 04:12:00,49.9,48.2,29.95,SE,140,3.0,9.0,94,0.00,,,0.00,Wunderground v.1.15,2013-05-10 09:12:00,
2013-05-10 04:18:00,49.9,48.2,29.95,East,79,3.0,9.0,94,0.00,,,0.00,Wunderground v.1.15,2013-05-10 09:18:00,
2013-05-10 04:24:00,49.9,48.2,29.95,SE,139,2.0,9.0,94,0.00,,,0.00,Wunderground v.1.15,2013-05-10 09:24:00,
2013-05-10 04:30:00,49.8,48.1,29.95,ESE,122,2.0,2.0,94,0.00,,,0.00,Wunderground v.1.15,2013-05-10 09:30:00,
2013-05-10 04:35:00,49.8,48.1,29.95,SE,145,3.0,9.0,94,0.00,,,0.00,Wunderground v.1.15,2013-05-10 09:35:00,
2013-05-10 04:41:00,49.7,48.3,29.96,ESE,105,2.0,3.0,95,0.00,,,0.00,Wunderground v.1.15,2013-05-10 09:41:00,
2013-05-10 04:47:00,49.5,48.1,29.95,ESE,119,2.0,9.0,95,0.00,,,0.00,Wunderground v.1.15,2013-05-10 09:47:00,
2013-05-10 04:53:00,49.3,47.9,29.95,SE,132,2.0,9.0,95,0.00,,,0.00,Wunderground v.1.15,2013-05-10 09:53:00,
2013-05-10 04:58:00,49.3,48.2,29.96,East,101,2.0,9.0,96,0.00,,,0.00,Wunderground v.1.15,2013-05-10 09:58:00,
2013-05-10 05:04:00,49.2,48.1,29.96,SE,127,3.0,9.0,96,0.00,,,0.00,Wunderground v.1.15,2013-05-10 10:04:00,
2013-05-10 05:10:00,49.1,48.0,29.96,SE,136,3.0,9.0,96,0.00,,,0.00,Wunderground v.1.15,2013-05-10 10:10:00,
2013-05-10 05:16:00,49.1,48.0,29.96,ESE,119,3.0,9.0,96,0.00,,,0.00,Wunderground v.1.15,2013-05-10 10:16:00,
2013-05-10 05:22:00,49.0,47.9,29.96,SSE,152,3.0,9.0,96,0.00,,,0.00,Wunderground v.1.15,2013-05-10 10:22:00,
2013-05-10 05:28:00,49.0,47.9,29.96,SSE,148,3.0,9.0,96,0.00,,,0.00,Wunderground v.1.15,2013-05-10 10:28:00,
2013-05-10 05:34:00,49.0,47.9,29.97,SE,143,2.0,9.0,96,0.00,,,0.00,Wunderground v.1.15,2013-05-10 10:34:00,
2013-05-10 05:39:00,48.9,47.8,29.96,SE,134,2.0,9.0,96,0.00,,,0.00,Wunderground v.1.15,2013-05-10 10:39:00,
2013-05-10 05:45:00,48.9,47.8,29.96,South,176,3.0,9.0,96,0.00,,,0.00,Wunderground v.1.15,2013-05-10 10:45:00,
2013-05-10 05:51:00,48.9,47.8,29.97,ESE,118,4.0,9.0,96,0.00,,,0.00,Wunderground v.1.15,2013-05-10 10:51:00,
2013-05-10 05:56:00,48.9,47.8,29.97,SE,139,3.0,9.0,96,0.00,,,0.00,Wunderground v.1.15,2013-05-10 10:56:00,
2013-05-10 06:02:00,48.8,47.7,29.97,SSE,153,3.0,9.0,96,0.00,,,0.00,Wunderground v.1.15,2013-05-10 11:02:00,
2013-05-10 06:07:00,48.7,47.6,29.97,ESE,110,3.0,9.0,96,0.00,,,0.00,Wunderground v.1.15,2013-05-10 11:07:00,
2013-05-10 06:13:00,48.7,47.6,29.97,SE,132,3.0,9.0,96,0.00,,,0.00,Wunderground v.1.15,2013-05-10 11:13:00,
2013-05-10 06:19:00,48.6,47.5,29.98,SE,139,3.0,9.0,96,0.00,,,0.00,Wunderground v.1.15,2013-05-10 11:19:00,
2013-05-10 06:25:00,48.6,47.5,29.98,SSE,167,2.0,9.0,96,0.00,,,0.00,Wunderground v.1.15,2013-05-10 11:25:00,
2013-05-10 06:30:00,48.5,47.4,29.98,SSE,155,3.0,9.0,96,0.00,,,0.00,Wunderground v.1.15,2013-05-10 11:30:00,
2013-05-10 06:36:00,48.4,47.3,29.98,NE,56,4.0,9.0,96,0.00,,,0.00,Wunderground v.1.15,2013-05-10 11:36:00,
2013-05-10 06:42:00,48.4,47.3,29.98,SE,146,3.0,9.0,96,0.00,,,0.00,Wunderground v.1.15,2013-05-10 11:42:00,
2013-05-10 06:48:00,48.4,47.3,29.98,SE,139,3.0,9.0,96,0.00,,,0.00,Wunderground v.1.15,2013-05-10 11:48:00,
2013-05-10 06:53:00,48.4,47.0,29.98,ESE,123,3.0,9.0,95,0.00,,,0.00,Wunderground v.1.15,2013-05-10 11:53:00,
2013-05-10 06:59:00,48.4,47.0,29.99,ESE,123,3.0,9.0,95,0.00,,,0.00,Wunderground v.1.15,2013-05-10 11:59:00,
2013-05-10 07:05:00,48.5,47.1,29.99,East,100,3.0,9.0,95,0.00,,,0.00,Wunderground v.1.15,2013-05-10 12:05:00,
2013-05-10 07:10:00,48.5,47.1,29.99,East,100,3.0,9.0,95,0.00,,,0.00,Wunderground v.1.15,2013-05-10 12:10:00,
2013-05-10 07:15:00,48.4,47.0,29.99,SE,130,3.0,9.0,95,0.00,,,0.00,Wunderground v.1.15,2013-05-10 12:15:00,
2013-05-10 07:21:00,48.4,46.8,29.99,SE,141,3.0,9.0,94,0.00,,,0.00,Wunderground v.1.15,2013-05-10 12:21:00,
2013-05-10 07:27:00,48.4,46.8,29.99,SSE,147,3.0,9.0,94,0.00,,,0.00,Wunderground v.1.15,2013-05-10 12:27:00,
2013-05-10 07:33:00,48.4,46.8,29.99,SE,124,3.0,9.0,94,0.00,,,0.00,Wunderground v.1.15,2013-05-10 12:33:00,
2013-05-10 07:38:00,48.5,46.9,29.99,SSE,160,4.0,9.0,94,0.00,,,0.00,Wunderground v.1.15,2013-05-10 12:38:00,
2013-05-10 07:44:00,48.4,46.8,30.00,SE,127,4.0,9.0,94,0.00,,,0.00,Wunderground v.1.15,2013-05-10 12:44:00,
2013-05-10 07:50:00,48.3,46.4,30.00,SE,136,3.0,9.0,93,0.00,,,0.00,Wunderground v.1.15,2013-05-10 12:50:00,
2013-05-10 07:56:00,48.3,46.4,30.00,ENE,73,3.0,9.0,93,0.00,,,0.00,Wunderground v.1.15,2013-05-10 12:56:00,
2013-05-10 08:02:00,48.3,46.4,30.00,SE,142,3.0,9.0,93,0.00,,,0.00,Wunderground v.1.15,2013-05-10 13:02:00,
2013-05-10 08:08:00,48.3,46.4,30.00,SSE,148,4.0,9.0,93,0.00,,,0.00,Wunderground v.1.15,2013-05-10 13:08:00,
2013-05-10 08:14:00,48.4,46.5,30.00,SE,124,4.0,9.0,93,0.00,,,0.00,Wunderground v.1.15,2013-05-10 13:14:00,
2013-05-10 08:20:00,48.5,46.6,30.00,ESE,117,3.0,3.0,93,0.00,,,0.00,Wunderground v.1.15,2013-05-10 13:20:00,
2013-05-10 08:25:00,48.7,46.8,30.01,SE,146,3.0,9.0,93,0.00,,,0.00,Wunderground v.1.15,2013-05-10 13:25:00,
2013-05-10 08:31:00,48.5,46.6,30.01,SSE,167,3.0,9.0,93,0.00,,,0.00,Wunderground v.1.15,2013-05-10 13:31:00,
2013-05-10 08:37:00,48.3,46.4,30.01,SE,139,3.0,9.0,93,0.00,,,0.00,Wunderground v.1.15,2013-05-10 13:37:00,
2013-05-10 08:43:00,48.2,46.3,30.01,SSW,200,2.0,9.0,93,0.00,,,0.00,Wunderground v.1.15,2013-05-10 13:43:00,
2013-05-10 08:48:00,48.1,46.5,30.01,SE,134,3.0,9.0,94,0.00,,,0.00,Wunderground v.1.15,2013-05-10 13:48:00,
2013-05-10 08:54:00,48.3,46.4,30.01,East,91,2.0,9.0,93,0.00,,,0.00,Wunderground v.1.15,2013-05-10 13:54:00,
2013-05-10 09:00:00,48.4,46.8,30.01,SE,134,3.0,3.0,94,0.00,,,0.00,Wunderground v.1.15,2013-05-10 14:00:00,
2013-05-10 09:06:00,48.5,46.6,30.01,SE,145,3.0,9.0,93,0.00,,,0.00,Wunderground v.1.15,2013-05-10 14:06:00,
2013-05-10 09:12:00,48.2,46.3,30.01,ESE,122,3.0,9.0,93,0.00,,,0.00,Wunderground v.1.15,2013-05-10 14:12:00,
2013-05-10 09:18:00,48.1,46.2,30.01,SSE,152,3.0,9.0,93,0.00,,,0.00,Wunderground v.1.15,2013-05-10 14:18:00,
2013-05-10 09:24:00,48.3,46.4,30.01,ESE,114,4.0,9.0,93,0.00,,,0.00,Wunderground v.1.15,2013-05-10 14:24:00,
2013-05-10 09:29:00,48.6,46.4,30.01,SE,137,4.0,9.0,92,0.00,,,0.00,Wunderground v.1.15,2013-05-10 14:29:00,
2013-05-10 09:35:00,48.8,46.3,30.01,SE,143,3.0,9.0,91,0.00,,,0.00,Wunderground v.1.15,2013-05-10 14:35:00,
2013-05-10 09:41:00,48.9,46.1,30.01,South,174,4.0,9.0,90,0.00,,,0.00,Wunderground v.1.15,2013-05-10 14:41:00,
2013-05-10 09:47:00,49.1,46.3,30.01,SE,127,3.0,9.0,90,0.00,,,0.00,Wunderground v.1.15,2013-05-10 14:47:00,
2013-05-10 09:53:00,48.9,46.1,30.01,South,171,3.0,9.0,90,0.00,,,0.00,Wunderground v.1.15,2013-05-10 14:53:00,
2013-05-10 09:59:00,48.9,46.1,30.01,SE,131,3.0,9.0,90,0.00,,,0.00,Wunderground v.1.15,2013-05-10 14:59:00,
2013-05-10 10:05:00,49.0,45.9,30.01,SE,128,4.0,9.0,89,0.00,,,0.00,Wunderground v.1.15,2013-05-10 15:05:00,
2013-05-10 10:11:00,49.2,46.4,30.01,SSE,161,3.0,9.0,90,0.00,,,0.00,Wunderground v.1.15,2013-05-10 15:11:00,
2013-05-10 10:16:00,49.4,46.3,30.01,SSE,155,4.0,9.0,89,0.00,,,0.00,Wunderground v.1.15,2013-05-10 15:16:00,
2013-05-10 10:22:00,49.6,46.5,30.01,ESE,120,3.0,9.0,89,0.00,,,0.00,Wunderground v.1.15,2013-05-10 15:22:00,
2013-05-10 10:28:00,49.8,47.0,30.01,SE,124,2.0,9.0,90,0.00,,,0.00,Wunderground v.1.15,2013-05-10 15:28:00,
2013-05-10 10:34:00,50.0,46.6,30.02,East,100,3.0,9.0,88,0.00,,,0.00,Wunderground v.1.15,2013-05-10 15:34:00,
2013-05-10 10:40:00,50.4,47.0,30.02,SE,132,3.0,3.0,88,0.00,,,0.00,Wunderground v.1.15,2013-05-10 15:40:00,
2013-05-10 10:46:00,50.5,47.1,30.02,ESE,110,3.0,9.0,88,0.00,,,0.00,Wunderground v.1.15,2013-05-10 15:46:00,
2013-05-10 10:52:00,50.6,47.2,30.02,SE,146,3.0,9.0,88,0.00,,,0.00,Wunderground v.1.15,2013-05-10 15:52:00,
2013-05-10 10:58:00,50.7,47.3,30.02,SE,129,3.0,9.0,88,0.00,,,0.00,Wunderground v.1.15,2013-05-10 15:58:00,
2013-05-10 11:03:00,50.6,46.9,30.02,SSE,148,4.0,9.0,87,0.00,,,0.00,Wunderground v.1.15,2013-05-10 16:03:00,
2013-05-10 11:09:00,50.8,47.4,30.02,SE,139,3.0,9.0,88,0.00,,,0.00,Wunderground v.1.15,2013-05-10 16:09:00,
2013-05-10 11:15:00,50.8,47.1,30.02,South,175,3.0,9.0,87,0.00,,,0.00,Wunderground v.1.15,2013-05-10 16:15:00,
2013-05-10 11:21:00,50.9,47.5,30.02,ESE,110,4.0,4.0,88,0.00,,,0.00,Wunderground v.1.15,2013-05-10 16:21:00,
2013-05-10 11:26:00,51.0,47.6,30.03,South,181,3.0,9.0,88,0.00,,,0.00,Wunderground v.1.15,2013-05-10 16:26:00,
2013-05-10 11:32:00,51.3,47.9,30.03,ESE,114,3.0,9.0,88,0.00,,,0.00,Wunderground v.1.15,2013-05-10 16:32:00,
2013-05-10 11:38:00,51.7,48.3,30.02,SSE,163,2.0,9.0,88,0.00,,,0.00,Wunderground v.1.15,2013-05-10 16:38:00,
2013-05-10 11:44:00,51.8,48.1,30.03,ESE,122,3.0,9.0,87,0.00,,,0.00,Wunderground v.1.15,2013-05-10 16:44:00,
2013-05-10 11:50:00,51.8,48.1,30.03,ESE,107,3.0,9.0,87,0.00,,,0.00,Wunderground v.1.15,2013-05-10 16:50:00,
2013-05-10 11:56:00,51.9,47.8,30.03,ESE,104,3.0,9.0,86,0.00,,,0.00,Wunderground v.1.15,2013-05-10 16:56:00,
2013-05-10 12:02:00,52.5,48.7,30.03,SE,137,3.0,9.0,87,0.00,,,0.00,Wunderground v.1.15,2013-05-10 17:02:00,
2013-05-10 12:07:00,52.9,48.8,30.03,SE,143,3.0,9.0,86,0.00,,,0.00,Wunderground v.1.15,2013-05-10 17:07:00,
2013-05-10 12:13:00,53.2,48.8,30.03,SSE,148,4.0,9.0,85,0.00,,,0.00,Wunderground v.1.15,2013-05-10 17:13:00,
2013-05-10 12:19:00,53.7,49.3,30.03,ESE,122,4.0,9.0,85,0.00,,,0.00,Wunderground v.1.15,2013-05-10 17:19:00,
2013-05-10 12:25:00,54.2,49.5,30.03,ESE,118,3.0,9.0,84,0.00,,,0.00,Wunderground v.1.15,2013-05-10 17:25:00,
2013-05-10 12:30:00,54.5,49.8,30.03,East,96,3.0,9.0,84,0.00,,,0.00,Wunderground v.1.15,2013-05-10 17:30:00,
2013-05-10 12:36:00,55.2,50.1,30.03,SSW,198,3.0,9.0,83,0.00,,,0.00,Wunderground v.1.15,2013-05-10 17:36:00,
2013-05-10 12:42:00,55.8,50.7,30.03,SE,146,3.0,9.0,83,0.00,,,0.00,Wunderground v.1.15,2013-05-10 17:42:00,
2013-05-10 12:48:00,56.6,51.2,30.03,SE,132,3.0,9.0,82,0.00,,,0.00,Wunderground v.1.15,2013-05-10 17:48:00,
2013-05-10 12:54:00,57.2,51.4,30.03,East,101,3.0,9.0,81,0.00,,,0.00,Wunderground v.1.15,2013-05-10 17:54:00,
2013-05-10 13:00:00,57.7,51.6,30.03,ESE,117,3.0,9.0,80,0.00,,,0.00,Wunderground v.1.15,2013-05-10 18:00:00,
2013-05-10 13:06:00,57.9,51.8,30.02,ESE,117,3.0,9.0,80,0.00,,,0.00,Wunderground v.1.15,2013-05-10 18:06:00,
2013-05-10 13:11:00,58.5,52.0,30.02,SE,131,3.0,9.0,79,0.00,,,0.00,Wunderground v.1.15,2013-05-10 18:11:00,
2013-05-10 13:17:00,58.5,51.7,30.03,SSE,152,2.0,9.0,78,0.00,,,0.00,Wunderground v.1.15,2013-05-10 18:17:00,
2013-05-10 13:23:00,59.3,53.5,30.02,SSE,162,2.0,9.0,81,0.00,,,0.00,Wunderground v.1.15,2013-05-10 18:23:00,
2013-05-10 13:29:00,59.6,52.4,30.02,SSE,162,3.0,9.0,77,0.00,,,0.00,Wunderground v.1.15,2013-05-10 18:29:00,
2013-05-10 13:34:00,59.5,52.6,30.02,SSE,148,4.0,9.0,78,0.00,,,0.00,Wunderground v.1.15,2013-05-10 18:34:00,
2013-05-10 13:40:00,60.0,52.8,30.02,ESE,113,3.0,9.0,77,0.00,,,0.00,Wunderground v.1.15,2013-05-10 18:40:00,
2013-05-10 13:46:00,60.6,53.7,30.02,SE,131,3.0,9.0,78,0.00,,,0.00,Wunderground v.1.15,2013-05-10 18:46:00,
2013-05-10 13:52:00,60.9,52.6,30.02,SSE,163,4.0,9.0,74,0.00,,,0.00,Wunderground v.1.15,2013-05-10 18:52:00,
2013-05-10 13:58:00,60.6,51.9,30.02,SSE,163,5.0,10.0,73,0.00,,,0.00,Wunderground v.1.15,2013-05-10 18:58:00,
2013-05-10 14:04:00,61.0,53.4,30.01,South,179,4.0,9.0,76,0.00,,,0.00,Wunderground v.1.15,2013-05-10 19:04:00,
2013-05-10 14:10:00,61.9,53.5,30.01,SE,146,4.0,9.0,74,0.00,,,0.00,Wunderground v.1.15,2013-05-10 19:10:00,
2013-05-10 14:15:00,61.5,52.8,30.01,SSE,155,3.0,9.0,73,0.00,,,0.00,Wunderground v.1.15,2013-05-10 19:15:00,
2013-05-10 14:21:00,62.2,54.9,30.01,SSE,158,2.0,9.0,77,0.00,,,0.00,Wunderground v.1.15,2013-05-10 19:21:00,
2013-05-10 14:26:00,62.5,53.3,30.01,South,170,2.0,9.0,72,0.00,,,0.00,Wunderground v.1.15,2013-05-10 19:26:00,
2013-05-10 14:32:00,62.2,52.7,30.01,SSE,160,3.0,9.0,71,0.00,,,0.00,Wunderground v.1.15,2013-05-10 19:32:00,
2013-05-10 14:38:00,62.0,53.2,30.01,SSE,163,3.0,9.0,73,0.00,,,0.00,Wunderground v.1.15,2013-05-10 19:38:00,
2013-05-10 14:44:00,62.2,53.1,30.01,SE,137,3.0,9.0,72,0.00,,,0.00,Wunderground v.1.15,2013-05-10 19:44:00,
2013-05-10 14:49:00,62.4,52.5,30.01,SE,135,4.0,9.0,70,0.00,,,0.00,Wunderground v.1.15,2013-05-10 19:49:00,
2013-05-10 14:55:00,62.7,54.3,30.00,ESE,117,3.0,9.0,74,0.00,,,0.00,Wunderground v.1.15,2013-05-10 19:55:00,
2013-05-10 15:00:00,62.7,53.2,30.00,SE,145,3.0,9.0,71,0.00,,,0.00,Wunderground v.1.15,2013-05-10 20:00:00,
2013-05-10 15:05:00,62.3,52.8,30.01,ESE,118,3.0,9.0,71,0.00,,,0.00,Wunderground v.1.15,2013-05-10 20:05:00,
2013-05-10 15:11:00,62.1,52.6,30.00,SE,125,3.0,4.0,71,0.00,,,0.00,Wunderground v.1.15,2013-05-10 20:11:00,
2013-05-10 15:17:00,62.2,51.5,30.00,SE,125,4.0,9.0,68,0.00,,,0.00,Wunderground v.1.15,2013-05-10 20:17:00,
2013-05-10 15:23:00,62.7,53.2,30.00,SSE,153,3.0,9.0,71,0.00,,,0.00,Wunderground v.1.15,2013-05-10 20:23:00,
2013-05-10 15:28:00,62.8,52.9,30.00,SE,143,2.0,9.0,70,0.00,,,0.00,Wunderground v.1.15,2013-05-10 20:28:00,
2013-05-10 15:34:00,62.4,51.7,30.00,SSE,150,3.0,9.0,68,0.00,,,0.00,Wunderground v.1.15,2013-05-10 20:34:00,
2013-05-10 15:40:00,62.4,51.7,30.00,East,96,3.0,9.0,68,0.00,,,0.00,Wunderground v.1.15,2013-05-10 20:40:00,
2013-05-10 15:46:00,62.5,52.2,30.00,ENE,78,3.0,9.0,69,0.00,,,0.00,Wunderground v.1.15,2013-05-10 20:46:00,
2013-05-10 15:51:00,62.8,52.1,30.00,SSE,164,3.0,9.0,68,0.00,,,0.00,Wunderground v.1.15,2013-05-10 20:51:00,
2013-05-10 15:57:00,63.0,51.9,30.00,ESE,118,3.0,9.0,67,0.00,,,0.00,Wunderground v.1.15,2013-05-10 20:57:00,
2013-05-10 16:02:00,63.0,51.9,29.99,South,172,3.0,9.0,67,0.00,,,0.00,Wunderground v.1.15,2013-05-10 21:02:00,
2013-05-10 16:08:00,63.3,53.0,29.99,SE,132,2.0,9.0,69,0.00,,,0.00,Wunderground v.1.15,2013-05-10 21:08:00,
2013-05-10 16:13:00,63.7,52.1,29.99,SSE,158,2.0,9.0,66,0.00,,,0.00,Wunderground v.1.15,2013-05-10 21:13:00,
2013-05-10 16:19:00,63.8,52.2,29.99,ESE,118,3.0,9.0,66,0.00,,,0.00,Wunderground v.1.15,2013-05-10 21:19:00,
2013-05-10 16:24:00,63.5,51.9,29.99,East,82,4.0,9.0,66,0.00,,,0.00,Wunderground v.1.15,2013-05-10 21:24:00,
2013-05-10 16:30:00,63.2,51.6,29.99,SE,124,4.0,4.0,66,0.00,,,0.00,Wunderground v.1.15,2013-05-10 21:30:00,
2013-05-10 16:36:00,63.2,52.1,29.99,SE,146,3.0,9.0,67,0.00,,,0.00,Wunderground v.1.15,2013-05-10 21:36:00,
2013-05-10 16:42:00,63.1,52.0,29.99,SSE,160,2.0,9.0,67,0.00,,,0.00,Wunderground v.1.15,2013-05-10 21:42:00,
2013-05-10 16:47:00,63.0,51.9,29.99,ESE,113,2.0,9.0,67,0.00,,,0.00,Wunderground v.1.15,2013-05-10 21:47:00,
2013-05-10 16:53:00,63.0,51.9,29.98,ESE,116,2.0,9.0,67,0.00,,,0.00,Wunderground v.1.15,2013-05-10 21:53:00,
2013-05-10 16:58:00,63.8,52.2,29.99,East,92,3.0,9.0,66,0.00,,,0.00,Wunderground v.1.15,2013-05-10 21:58:00,
2013-05-10 17:00:00,64.1,52.5,29.99,ESE,111,3.0,3.0,66,0.00,,,0.00,Wunderground v.1.15,2013-05-10 22:00:00,
2013-05-10 17:01:00,64.3,52.3,29.99,SE,124,3.0,9.0,65,0.00,,,0.00,Wunderground v.1.15,2013-05-10 22:01:00,
2013-05-10 17:02:00,64.4,53.2,29.99,SE,129,3.0,9.0,67,0.00,,,0.00,Wunderground v.1.15,2013-05-10 22:02:00,
2013-05-10 17:03:00,64.4,52.4,29.99,ESE,118,3.0,9.0,65,0.00,,,0.00,Wunderground v.1.15,2013-05-10 22:03:00,
2013-05-10 17:09:00,64.6,51.7,29.98,SE,132,3.0,9.0,63,0.00,,,0.00,Wunderground v.1.15,2013-05-10 22:09:00,
2013-05-10 17:14:00,64.6,50.8,29.98,SE,144,3.0,9.0,61,0.00,,,0.00,Wunderground v.1.15,2013-05-10 22:14:00,
2013-05-10 17:20:00,64.1,50.4,29.98,SE,143,3.0,3.0,61,0.00,,,0.00,Wunderground v.1.15,2013-05-10 22:20:00,
2013-05-10 17:26:00,64.0,51.1,29.98,SSE,148,3.0,9.0,63,0.00,,,0.00,Wunderground v.1.15,2013-05-10 22:26:00,
2013-05-10 17:32:00,64.1,51.7,29.98,SE,142,2.0,9.0,64,0.00,,,0.00,Wunderground v.1.15,2013-05-10 22:32:00,
2013-05-10 17:37:00,65.0,52.5,29.98,SE,139,2.0,9.0,64,0.00,,,0.00,Wunderground v.1.15,2013-05-10 22:37:00,
2013-05-10 17:43:00,65.1,50.4,29.98,SSE,155,3.0,9.0,59,0.00,,,0.00,Wunderground v.1.15,2013-05-10 22:43:00,
2013-05-10 17:49:00,65.0,50.8,29.98,ESE,103,3.0,9.0,60,0.00,,,0.00,Wunderground v.1.15,2013-05-10 22:49:00,
2013-05-10 17:55:00,65.1,51.8,29.98,SE,142,3.0,9.0,62,0.00,,,0.00,Wunderground v.1.15,2013-05-10 22:55:00,
2013-05-10 18:00:00,65.5,51.7,29.98,ESE,120,2.0,2.0,61,0.00,,,0.00,Wunderground v.1.15,2013-05-10 23:00:00,
2013-05-10 18:06:00,65.6,51.8,29.98,ESE,110,2.0,9.0,61,0.00,,,0.00,Wunderground v.1.15,2013-05-10 23:06:00,
2013-05-10 18:12:00,65.6,50.9,29.98,SE,143,2.0,9.0,59,0.00,,,0.00,Wunderground v.1.15,2013-05-10 23:12:00,
2013-05-10 18:18:00,65.2,49.6,29.97,SE,129,3.0,9.0,57,0.00,,,0.00,Wunderground v.1.15,2013-05-10 23:18:00,
2013-05-10 18:23:00,65.1,49.5,29.97,SSE,150,3.0,9.0,57,0.00,,,0.00,Wunderground v.1.15,2013-05-10 23:23:00,
2013-05-10 18:29:00,65.2,49.6,29.97,SSE,155,3.0,9.0,57,0.00,,,0.00,Wunderground v.1.15,2013-05-10 23:29:00,
2013-05-10 18:34:00,65.4,50.7,29.97,ESE,118,2.0,9.0,59,0.00,,,0.00,Wunderground v.1.15,2013-05-10 23:34:00,
2013-05-10 18:40:00,65.5,50.3,29.97,ESE,109,1.0,9.0,58,0.00,,,0.00,Wunderground v.1.15,2013-05-10 23:40:00,
2013-05-10 18:45:00,65.8,50.6,29.97,ESE,105,1.0,9.0,58,0.00,,,0.00,Wunderground v.1.15,2013-05-10 23:45:00,
2013-05-10 18:51:00,65.3,50.1,29.97,SE,144,1.0,9.0,58,0.00,,,0.00,Wunderground v.1.15,2013-05-10 23:51:00,
2013-05-10 18:57:00,64.9,49.8,29.97,SSE,148,2.0,9.0,58,0.00,,,0.00,Wunderground v.1.15,2013-05-10 23:57:00,
2013-05-10 19:02:00,64.9,50.2,29.97,SSE,158,1.0,9.0,59,0.00,,,0.00,Wunderground v.1.15,2013-05-11 00:02:00,
2013-05-10 19:08:00,64.9,50.7,29.97,SSE,159,1.0,9.0,60,0.00,,,0.00,Wunderground v.1.15,2013-05-11 00:08:00,
2013-05-10 19:13:00,64.8,50.6,29.97,SSE,148,1.0,9.0,60,0.00,,,0.00,Wunderground v.1.15,2013-05-11 00:13:00,
2013-05-10 19:19:00,64.8,50.6,29.97,SSE,148,0.0,9.0,60,0.00,,,0.00,Wunderground v.1.15,2013-05-11 00:19:00,
2013-05-10 19:25:00,64.6,50.8,29.97,SSE,147,0.0,9.0,61,0.00,,,0.00,Wunderground v.1.15,2013-05-11 00:25:00,
2013-05-10 19:31:00,64.2,50.9,29.97,SE,146,0.0,9.0,62,0.00,,,0.00,Wunderground v.1.15,2013-05-11 00:31:00,
2013-05-10 19:37:00,63.9,50.2,29.97,SSE,152,1.0,9.0,61,0.00,,,0.00,Wunderground v.1.15,2013-05-11 00:37:00,
2013-05-10 19:43:00,63.4,49.7,29.97,SE,140,1.0,9.0,61,0.00,,,0.00,Wunderground v.1.15,2013-05-11 00:43:00,
2013-05-10 19:49:00,62.9,50.1,29.97,SE,139,1.0,9.0,63,0.00,,,0.00,Wunderground v.1.15,2013-05-11 00:49:00,
2013-05-10 19:54:00,62.7,49.9,29.97,SE,139,0.0,9.0,63,0.00,,,0.00,Wunderground v.1.15,2013-05-11 00:54:00,
2013-05-10 20:00:00,62.4,50.1,29.97,SE,138,0.0,9.0,64,0.00,,,0.00,Wunderground v.1.15,2013-05-11 01:00:00,
2013-05-10 20:06:00,61.7,49.8,29.97,SE,139,0.0,9.0,65,0.00,,,0.00,Wunderground v.1.15,2013-05-11 01:06:00,
2013-05-10 20:12:00,60.9,49.5,29.97,SE,138,0.0,9.0,66,0.00,,,0.00,Wunderground v.1.15,2013-05-11 01:12:00,
2013-05-10 20:17:00,60.4,49.4,29.97,SE,140,0.0,9.0,67,0.00,,,0.00,Wunderground v.1.15,2013-05-11 01:17:00,
2013-05-10 20:23:00,59.9,49.3,29.97,SE,138,0.0,9.0,68,0.00,,,0.00,Wunderground v.1.15,2013-05-11 01:23:00,
2013-05-10 20:29:00,59.6,49.4,29.97,SE,139,0.0,9.0,69,0.00,,,0.00,Wunderground v.1.15,2013-05-11 01:29:00,
2013-05-10 20:35:00,59.5,49.3,29.97,SE,139,0.0,9.0,69,0.00,,,0.00,Wunderground v.1.15,2013-05-11 01:35:00,
2013-05-10 20:41:00,59.2,49.4,29.97,SE,139,0.0,9.0,70,0.00,,,0.00,Wunderground v.1.15,2013-05-11 01:41:00,
2013-05-10 20:47:00,58.7,49.7,29.98,SE,140,0.0,9.0,72,0.00,,,0.00,Wunderground v.1.15,2013-05-11 01:47:00,
2013-05-10 20:53:00,58.4,49.4,29.97,SE,140,0.0,9.0,72,0.00,,,0.00,Wunderground v.1.15,2013-05-11 01:53:00,
2013-05-10 20:58:00,58.2,50.0,29.97,SE,139,0.0,9.0,74,0.00,,,0.00,Wunderground v.1.15,2013-05-11 01:58:00,
2013-05-10 21:04:00,57.8,49.6,29.97,SE,140,0.0,9.0,74,0.00,,,0.00,Wunderground v.1.15,2013-05-11 02:04:00,
2013-05-10 21:10:00,57.7,49.5,29.97,SE,140,0.0,9.0,74,0.00,,,0.00,Wunderground v.1.15,2013-05-11 02:10:00,
2013-05-10 21:16:00,57.9,49.3,29.98,SE,138,0.0,9.0,73,0.00,,,0.00,Wunderground v.1.15,2013-05-11 02:16:00,
2013-05-10 21:21:00,57.8,49.6,29.98,SE,139,0.0,9.0,74,0.00,,,0.00,Wunderground v.1.15,2013-05-11 02:21:00,
2013-05-10 21:27:00,57.9,49.3,29.98,SE,139,0.0,9.0,73,0.00,,,0.00,Wunderground v.1.15,2013-05-11 02:27:00,
2013-05-10 21:33:00,57.8,49.2,29.98,SE,139,0.0,9.0,73,0.00,,,0.00,Wunderground v.1.15,2013-05-11 02:33:00,
2013-05-10 21:38:00,57.5,49.3,29.98,SE,140,0.0,9.0,74,0.00,,,0.00,Wunderground v.1.15,2013-05-11 02:38:00,
2013-05-10 21:44:00,57.3,49.1,29.98,SE,139,0.0,9.0,74,0.00,,,0.00,Wunderground v.1.15,2013-05-11 02:44:00,
2013-05-10 21:49:00,57.4,49.2,29.99,SE,140,0.0,9.0,74,0.00,,,0.00,Wunderground v.1.15,2013-05-11 02:49:00,
2013-05-10 21:55:00,56.9,48.7,29.99,SE,139,0.0,9.0,74,0.00,,,0.00,Wunderground v.1.15,2013-05-11 02:55:00,
2013-05-10 22:00:00,56.1,48.6,29.99,SE,139,0.0,9.0,76,0.00,,,0.00,Wunderground v.1.15,2013-05-11 03:00:00,
2013-05-10 22:06:00,55.3,48.2,29.99,SE,139,0.0,9.0,77,0.00,,,0.00,Wunderground v.1.15,2013-05-11 03:06:00,
2013-05-10 22:12:00,54.9,48.5,29.99,SE,139,0.0,9.0,79,0.00,,,0.00,Wunderground v.1.15,2013-05-11 03:12:00,
2013-05-10 22:18:00,54.5,48.5,29.99,SE,139,0.0,9.0,80,0.00,,,0.00,Wunderground v.1.15,2013-05-11 03:18:00,
2013-05-10 22:24:00,54.3,48.6,30.00,SE,139,0.0,9.0,81,0.00,,,0.00,Wunderground v.1.15,2013-05-11 03:24:00,
2013-05-10 22:30:00,54.0,48.6,30.00,SE,139,0.0,9.0,82,0.00,,,0.00,Wunderground v.1.15,2013-05-11 03:30:00,
2013-05-10 22:36:00,53.9,48.9,30.00,SE,139,0.0,9.0,83,0.00,,,0.00,Wunderground v.1.15,2013-05-11 03:36:00,
2013-05-10 22:42:00,53.9,48.5,30.00,SE,139,0.0,9.0,82,0.00,,,0.00,Wunderground v.1.15,2013-05-11 03:42:00,
2013-05-10 22:47:00,53.7,48.3,30.00,SE,139,0.0,9.0,82,0.00,,,0.00,Wunderground v.1.15,2013-05-11 03:47:00,
2013-05-10 22:52:00,53.4,48.0,30.00,SE,139,0.0,9.0,82,0.00,,,0.00,Wunderground v.1.15,2013-05-11 03:52:00,
2013-05-10 22:58:00,53.1,48.1,30.00,SE,139,0.0,9.0,83,0.00,,,0.00,Wunderground v.1.15,2013-05-11 03:58:00,
2013-05-10 23:01:00,53.1,48.1,30.00,SE,139,0.0,9.0,83,0.00,,,0.00,Wunderground v.1.15,2013-05-11 04:01:00,
2013-05-10 23:03:00,53.1,48.4,30.00,SE,139,0.0,9.0,84,0.00,,,0.00,Wunderground v.1.15,2013-05-11 04:03:00,
2013-05-10 23:05:00,53.1,48.4,30.00,SE,139,0.0,9.0,84,0.00,,,0.00,Wunderground v.1.15,2013-05-11 04:05:00,
2013-05-10 23:11:00,52.9,47.9,29.99,SE,139,0.0,9.0,83,0.00,,,0.00,Wunderground v.1.15,2013-05-11 04:11:00,
2013-05-10 23:12:00,52.8,47.8,30.00,SE,139,0.0,9.0,83,0.00,,,0.00,Wunderground v.1.15,2013-05-11 04:12:00,
2013-05-10 23:14:00,52.7,48.0,29.99,SE,139,0.0,9.0,84,0.00,,,0.00,Wunderground v.1.15,2013-05-11 04:14:00,
2013-05-10 23:19:00,52.4,48.0,29.99,SE,139,0.0,9.0,85,0.00,,,0.00,Wunderground v.1.15,2013-05-11 04:19:00,
2013-05-10 23:25:00,52.8,48.7,30.00,SE,139,0.0,9.0,86,0.00,,,0.00,Wunderground v.1.15,2013-05-11 04:25:00,
2013-05-10 23:31:00,53.2,48.8,30.00,SE,138,0.0,9.0,85,0.00,,,0.00,Wunderground v.1.15,2013-05-11 04:31:00,
2013-05-10 23:37:00,53.1,48.7,30.00,SE,138,0.0,9.0,85,0.00,,,0.00,Wunderground v.1.15,2013-05-11 04:37:00,
2013-05-10 23:43:00,52.8,48.4,29.99,SE,139,0.0,9.0,85,0.00,,,0.00,Wunderground v.1.15,2013-05-11 04:43:00,
2013-05-10 23:49:00,52.4,48.3,30.00,SE,138,0.0,9.0,86,0.00,,,0.00,Wunderground v.1.15,2013-05-11 04:49:00,
2013-05-10 23:54:00,52.2,48.4,29.99,SE,138,0.0,9.0,87,0.00,,,0.00,Wunderground v.1.15,2013-05-11 04:54:00,